Andrews, NC

11:35 PM EST on January 17, 2018 (GMT -0500)
Andrews

Weather History for KRHP - January, 2012

Change the Weather History Date:

Monday, January 2, 2012

  Actual Average (KMMI) Record (KMMI)
Temperature  
Mean Temperature 34 °F -  
Max Temperature 41 °F 47 °F 60 °F (2017)
Min Temperature 26 °F 27 °F 5 °F (2018)
Degree Days  
Heating Degree Days 32    
Moisture  
Dew Point 18 °F    
Average Humidity 53    
Maximum Humidity 74    
Minimum Humidity 38    
Precipitation  
Precipitation 0.00 in - - ()
Sea Level Pressure  
Sea Level Pressure 30.13 in    
Wind  
Wind Speed 6 mph (WNW)    
Max Wind Speed 23 mph    
Max Gust Speed 36 mph    
Visibility 10 miles    
Events Snow    
Averages and records for this station are not official NWS values.
T = Trace of Precipitation, MM = Missing Value Source: NWS Daily Summary

Daily Weather History Graph

Daily Weather History Graph

Search for Another Location

Airport or City:

Trip Planner

Search our weather history database for the weather conditions in past years. The results will help you decide how hot, cold, wet, or windy it might be!

Date:

Astronomy

Jan. 02, 2012 Rise Set
Actual Time 7:44 AM EST 5:34 PM EST
Civil Twilight 7:15 AM EST 6:02 PM EST
Nautical Twilight 6:44 AM EST 6:34 PM EST
Astronomical Twilight 6:13 AM EST 7:05 PM EST
Moon 12:45 PM EST (1/2) 1:42 AM EST (1/2)
Length of Visible Light 10h 46m
Length of Day
9h 50m
Waxing Gibbous, 63% of the Moon is Illuminated
Jan 2
Waxing Gibbous
Jan 9
Full
Jan 16
Last Quarter
Jan 23
New
Jan 30
First Quarter

Hourly Weather History & Observations

Time (EST) Temp. Windchill Dew Point Humidity Pressure Visibility Wind Dir Wind Speed Gust Speed Precip Events Conditions
12:15 AM 41.0 °F 39.0 °F 28.4 °F 61% 30.18 in 10.0 mi NW 3.5 mph - N/A   Overcast
12:35 AM 41.0 °F 38.0 °F 28.4 °F 61% 30.18 in 10.0 mi NNW 4.6 mph - N/A   Mostly Cloudy
12:55 AM 41.0 °F 39.0 °F 26.6 °F 57% 30.18 in 10.0 mi NW 3.5 mph 18.4 mph N/A   Mostly Cloudy
1:15 AM 39.2 °F - 28.4 °F 65% 30.17 in 10.0 mi Calm Calm - N/A   Scattered Clouds
1:35 AM 37.4 °F 32.8 °F 26.6 °F 65% 30.16 in 10.0 mi NNE 5.8 mph - N/A   Scattered Clouds
1:55 AM 37.4 °F 34.9 °F 24.8 °F 60% 30.16 in 10.0 mi NNE 3.5 mph - N/A   Scattered Clouds
2:15 AM 37.4 °F - 23.0 °F 56% 30.17 in 10.0 mi Calm Calm - N/A   Scattered Clouds
2:35 AM 35.6 °F 29.9 °F 23.0 °F 60% 30.17 in 10.0 mi NNW 6.9 mph - N/A   Scattered Clouds
2:55 AM 37.4 °F 33.8 °F 21.2 °F 52% 30.17 in 10.0 mi NNE 4.6 mph - N/A   Clear
3:15 AM 35.6 °F 32.8 °F 21.2 °F 56% 30.17 in 10.0 mi North 3.5 mph - N/A   Clear
3:35 AM 35.6 °F - 19.4 °F 52% 30.17 in 10.0 mi Calm Calm - N/A   Clear
3:55 AM 32.0 °F 28.7 °F 23.0 °F 69% 30.16 in 10.0 mi NNW 3.5 mph - N/A   Clear
4:15 AM 33.8 °F 29.6 °F 19.4 °F 56% 30.16 in 10.0 mi NNE 4.6 mph - N/A   Clear
4:35 AM 33.8 °F - 19.4 °F 56% 30.15 in 10.0 mi Calm Calm - N/A   Clear
4:55 AM 33.8 °F - 15.8 °F 48% 30.16 in 10.0 mi Calm Calm - N/A   Clear
5:35 AM 32.0 °F - 14.0 °F 48% 30.16 in 10.0 mi Calm Calm - N/A   Clear
5:55 AM 30.2 °F - 17.6 °F 60% 30.16 in 10.0 mi Calm Calm - N/A   Clear
6:35 AM 30.2 °F - 17.6 °F 60% 30.15 in 10.0 mi Calm Calm - N/A   Clear
6:55 AM 28.4 °F 24.6 °F 19.4 °F 69% 30.15 in 10.0 mi West 3.5 mph - N/A   Clear
7:15 AM 26.6 °F 21.2 °F 19.4 °F 74% 30.16 in 10.0 mi WSW 4.6 mph - N/A   Clear
7:55 AM 26.6 °F - 19.4 °F 74% 30.16 in 10.0 mi Calm Calm - N/A   Clear
8:15 AM 26.6 °F 20.0 °F 19.4 °F 74% 30.17 in 10.0 mi WSW 5.8 mph - N/A   Clear
8:35 AM 28.4 °F 20.4 °F 21.2 °F 74% 30.16 in 10.0 mi WSW 8.1 mph - N/A   Clear
8:55 AM 32.0 °F 26.4 °F 17.6 °F 55% 30.16 in 10.0 mi West 5.8 mph - N/A   Clear
9:15 AM 32.0 °F 23.6 °F 17.6 °F 55% 30.16 in 10.0 mi WSW 10.4 mph - N/A   Clear
9:35 AM 33.8 °F 27.0 °F 19.4 °F 56% 30.16 in 10.0 mi SW 8.1 mph - N/A   Clear
9:55 AM 33.8 °F 27.0 °F 17.6 °F 52% 30.16 in 10.0 mi WSW 8.1 mph - N/A   Clear
10:15 AM 33.8 °F 23.9 °F 17.6 °F 52% 30.16 in 10.0 mi WSW 15.0 mph - N/A   Clear
10:35 AM 33.8 °F 23.9 °F 17.6 °F 52% 30.15 in 10.0 mi WSW 15.0 mph 18.4 mph N/A   Clear
11:15 AM 35.6 °F 28.0 °F 14.0 °F 41% 30.14 in 10.0 mi West 10.4 mph 17.3 mph N/A   Clear
11:35 AM 35.6 °F 28.6 °F 17.6 °F 48% 30.13 in 10.0 mi WSW 9.2 mph 21.9 mph N/A   Clear
11:55 AM 35.6 °F 26.6 °F 15.8 °F 44% 30.12 in 10.0 mi WSW 13.8 mph 21.9 mph N/A   Clear
12:15 PM 35.6 °F 29.9 °F 15.8 °F 44% 30.12 in 10.0 mi West 6.9 mph 17.3 mph N/A   Clear
12:35 PM 35.6 °F 29.9 °F 17.6 °F 48% 30.10 in 10.0 mi West 6.9 mph - N/A   Clear
12:55 PM 37.4 °F 31.4 °F 15.8 °F 41% 30.09 in 10.0 mi WSW 8.1 mph 21.9 mph N/A   Clear
1:15 PM 35.6 °F 29.2 °F 15.8 °F 44% 30.08 in 10.0 mi WNW 8.1 mph 18.4 mph N/A   Scattered Clouds
1:35 PM 35.6 °F - 14.0 °F 41% 30.07 in 10.0 mi Calm Calm - N/A   Clear
1:55 PM 37.4 °F 27.8 °F 15.8 °F 41% 30.06 in 10.0 mi WSW 17.3 mph 23.0 mph N/A   Scattered Clouds
2:15 PM 37.4 °F 28.9 °F 14.0 °F 38% 30.06 in 10.0 mi West 13.8 mph 20.7 mph N/A   Clear
2:35 PM 35.6 °F 24.5 °F 12.2 °F 38% 30.06 in 10.0 mi West 20.7 mph 35.7 mph N/A   Clear
2:55 PM 35.6 °F 24.5 °F 12.2 °F 38% 30.06 in 10.0 mi WNW 20.7 mph 31.1 mph N/A   Scattered Clouds
3:15 PM 35.6 °F 24.5 °F 12.2 °F 38% 30.06 in 10.0 mi West 20.7 mph 33.4 mph N/A   Clear
3:35 PM 35.6 °F 24.0 °F 12.2 °F 38% 30.06 in 10.0 mi West 23.0 mph 32.2 mph N/A   Clear
3:55 PM 35.6 °F 25.9 °F 15.8 °F 44% 30.06 in 10.0 mi West 16.1 mph 25.3 mph N/A   Scattered Clouds
4:15 PM 33.8 °F 24.3 °F 14.0 °F 44% 30.07 in 10.0 mi West 13.8 mph 21.9 mph N/A   Mostly Cloudy
4:35 PM 33.8 °F 27.0 °F 14.0 °F 44% 30.08 in 10.0 mi West 8.1 mph - N/A   Mostly Cloudy
4:55 PM 32.0 °F 21.6 °F 14.0 °F 48% 30.08 in 10.0 mi West 15.0 mph 20.7 mph N/A   Overcast
5:15 PM 32.0 °F 24.8 °F 15.8 °F 51% 30.09 in 10.0 mi WNW 8.1 mph 20.7 mph N/A   Overcast
5:35 PM 32.0 °F 25.6 °F 17.6 °F 55% 30.11 in 10.0 mi NW 6.9 mph 18.4 mph N/A   Overcast
5:55 PM 30.2 °F - 19.4 °F 64% 30.13 in 5.0 mi Calm Calm - N/A Snow Light Snow
6:15 PM 30.2 °F - 19.4 °F 64% 30.13 in 7.0 mi Calm Calm - N/A Snow Light Snow
6:35 PM 30.2 °F 26.7 °F 15.8 °F 55% 30.14 in 10.0 mi NW 3.5 mph 31.1 mph N/A   Overcast
6:55 PM 28.4 °F 15.8 °F 10.4 °F 47% 30.16 in 10.0 mi NW 18.4 mph 26.5 mph N/A   Overcast
7:15 PM 28.4 °F 20.4 °F 8.6 °F 43% 30.15 in 10.0 mi WNW 8.1 mph 16.1 mph N/A   Scattered Clouds
7:35 PM 28.4 °F 17.5 °F 10.4 °F 47% 30.16 in 10.0 mi North 13.8 mph 18.4 mph N/A   Mostly Cloudy
7:55 PM 28.4 °F 22.2 °F 12.2 °F 51% 30.15 in 10.0 mi West 5.8 mph - N/A   Overcast
8:15 PM 26.6 °F 16.2 °F 17.6 °F 69% 30.16 in 5.0 mi West 11.5 mph - N/A Snow Light Snow
8:35 PM 26.6 °F 18.2 °F 12.2 °F 55% 30.17 in 10.0 mi West 8.1 mph 23.0 mph N/A   Mostly Cloudy
8:55 PM 26.6 °F 16.8 °F 12.2 °F 55% 30.17 in 10.0 mi NNW 10.4 mph 21.9 mph N/A   Overcast
9:15 PM 26.6 °F 18.2 °F 12.2 °F 55% 30.17 in 10.0 mi NW 8.1 mph - N/A   Overcast
9:35 PM 26.6 °F 20.0 °F 12.2 °F 55% 30.17 in 10.0 mi NW 5.8 mph 20.7 mph N/A   Overcast
9:55 PM 26.6 °F 22.6 °F 12.2 °F 55% 30.18 in 10.0 mi North 3.5 mph - N/A   Overcast
10:15 PM 24.8 °F 20.5 °F 14.0 °F 64% 30.18 in 5.0 mi North 3.5 mph - N/A Snow Light Snow
10:35 PM 24.8 °F 19.1 °F 15.8 °F 69% 30.19 in 5.0 mi North 4.6 mph - N/A Snow Light Snow
10:55 PM 24.8 °F 16.1 °F 15.8 °F 69% 30.18 in 5.0 mi West 8.1 mph - N/A Snow Light Snow
11:15 PM 23.0 °F 18.4 °F 19.4 °F 86% 30.18 in 1.2 mi SW 3.5 mph - N/A Snow Light Snow
11:35 PM 23.0 °F - 19.4 °F 86% 30.18 in 3.0 mi Calm Calm - N/A   Overcast
11:55 PM 23.0 °F - 17.6 °F 80% 30.18 in 5.0 mi Calm Calm - N/A   Overcast